Location: Huberhof
(49.2050°N, 7.4980°E)
Time: 01:15:27
(UTC+00:00)

USA 215 - Pass Details

Date: 29 October 2020
Orbit: 1102 x 1106 km, 123.0° (Epoch: 23 November)

Event Time Altitude Azimuth Distance (km) Brightness Sun altitude
Exits shadow 18:10:08 29° 70° (ENE) 1,901 4.0 -19.6°
Maximum altitude 18:13:13 50° 12° (NNE) 1,383 3.7 -20.1°
Drops below altitude 10° 18:19:28 10° 300° (WNW) 2,966 6.4 -21.1°
Sets 18:22:01 0° 295° (WNW) 3,925 7.4 -21.5°
